Home   Weather   Sisimiut   Past weeks

Flag for Greenland Past Weather in Sisimiut, Greenland — Yesterday and Last 2 Weeks

Now
-4 °F

Frigid.


Feels Like: -19 °F
Forecast: -3 / 11 °F
Wind: 8 mph from West

Location: Attu Kitsissut

Current Time: Jan 17, 2017 at 10:26:31 am

Latest Report: Jan 17, 2017 at 9:00 am


Visibility: N/A

Pressure: 29.89 "Hg

Humidity: 72%

Dew Point: -11 °F

Location of SisimiutLocation

Past Weather in Sisimiut — Graph

°F

Sisimiut Temperature Yesterday

Maximum temperature yesterday: 5 °F (at 6:00 pm)
Minimum temperature yesterday: -1 °F (at 1:00 am)
Average temperature yesterday: 3 °F

High & Low Weather Summary for the Past Weeks

 TemperatureHumidityPressure
High26 °F (Jan 3, 10:00 pm)94% (Jan 4, 3:00 am)30.43 "Hg (Jan 4, 3:00 am)
Low-4 °F (Jan 17, 9:00 am)55% (Jan 5, 5:00 am)28.76 "Hg (Jan 15, 4:00 am)
Average13 °F80%29.58 "Hg
* Reported Jan 2 9:00 am — Jan 17 9:00 am, Sisimiut, Weather by CustomWeather, © 2017

Note: Actual official high and low records may vary slightly from our data, if they occured in-between our weather recording intervals... More about our weather records

Advertising

Sisimiut Weather History for the Previous 24 Hours

Scroll right to see more
 ConditionsComfort  
Time TempWeatherWind HumidityBarometerVisibility
9:00 am
Tue, Jan 17
-4 °FFrigid.8 mph72%29.89 "HgN/A
8:00 am-4 °FFrigid.9 mph72%29.87 "HgN/A
7:00 am-4 °FFrigid.12 mph72%29.85 "HgN/A
6:00 am-3 °FFrigid.9 mph80%29.83 "HgN/A
5:00 am-3 °FFrigid.12 mph83%29.81 "HgN/A
4:00 am-1 °FFrigid.12 mph85%29.79 "HgN/A
3:00 am-1 °FFrigid.13 mph85%29.77 "HgN/A
2:00 am0 °FFrigid.13 mph86%29.74 "HgN/A
1:00 am0 °FFrigid.16 mph86%29.72 "HgN/A
12:00 am1 °FFrigid.15 mph87%29.70 "HgN/A
11:00 pm
Mon, Jan 16
3 °FFrigid.15 mph88%29.68 "HgN/A
10:00 pm3 °FFrigid.13 mph88%29.67 "HgN/A
9:00 pm4 °FFrigid.14 mph88%29.64 "HgN/A
8:00 pm4 °FFrigid.14 mph89%29.62 "HgN/A
7:00 pm5 °FFrigid.8 mph86%29.60 "HgN/A
6:00 pm5 °FFrigid.7 mph87%29.59 "HgN/A
5:00 pm5 °FFrigid.8 mph87%29.57 "HgN/A
4:00 pm5 °FFrigid.9 mph88%29.55 "HgN/A
3:00 pm4 °FFrigid.5 mph88%29.54 "HgN/A
11:00 am4 °FFrigid.9 mph86%29.47 "HgN/A
10:00 am4 °FFrigid.10 mph85%29.47 "HgN/A
Weather by CustomWeather, © 2017

See weather overviewHow to use our weather pages